Regional Weather Roundup
Issued by NWS

Home | Current Version | Previous Version | Text Only | Print | Product List | Glossary Off
Versions: 1 2 3 4 5 6 7 8 9 10 11 12 13 14 15 16 17 18 19 20 21 22 23 24 25 26 27 28 29 30 31 32 33 34 35 36 37 38 39 40 41 42 43 44 45 46 47 48 49 50

635
ASUS43 KLOT 221704
RWRIL

ILLINOIS REGIONAL WEATHER ROUNDUP
NATIONAL WEATHER SERVICE CHICAGO/ROMEOVILLE IL
1200 PM CDT SUN OCT 22 2017

NOTE: "FAIR" INDICATES FEW OR NO CLOUDS BELOW 12,000 FEET WITH NO
SIGNIFICANT WEATHER AND/OR OBSTRUCTIONS TO VISIBILITY.

* THESE STATIONS ARE NOT UNDER NWS QUALITY CONTROL. THEY ALSO MAY NOT
  REPORT WEATHER SUCH AS PRECIPITATION OR FOG.

ILZ001-002-007-009-015-016-024-221800-
NORTHWEST ILLINOIS

CITY           SKY/WX    TMP DP  RH WIND       PRES   REMARKS
MOLINE         CLOUDY    54  47  77 N15G22    30.04R
STERLING*      LGT RAIN  53  51  93 N12         N/A  FOG
SAVANNA*       CLOUDY    53  48  82 NW14      30.02R
$$

ILZ003-004-008-010-011-017-018-221800-
NORTH CENTRAL ILLINOIS

CITY           SKY/WX    TMP DP  RH WIND       PRES   REMARKS
ROCKFORD       LGT RAIN  55  53  93 NW17      29.98R FOG
FREEPORT*      CLOUDY    51  50  98 NW13      30.02R
ROCHELLE*      RAIN      56  55  97 NW16G24   29.96R
$$

ILZ005-006-012>014-019>023-221800-
NORTHEAST ILLINOIS

CITY           SKY/WX    TMP DP  RH WIND       PRES   REMARKS
CHICAGO-OHARE  CLOUDY    68  61  78 S16       29.93F
CHICAGO-MIDWAY CLOUDY    71  61  70 S21G26    29.94F
AURORA         CLOUDY    66  63  90 S10       29.94S
LANSING*       CLOUDY    66  63  91 S14       29.98S
JOLIET*        CLOUDY    70  63  77 S14G21    29.94S
WAUKEGAN       CLOUDY    66  63  90 S15       29.93S
DUPAGE AIRPORT CLOUDY    65  63  93 S6        29.93S
KANKAKEE*      CLOUDY    71  60  67 S17G28    29.97F
WHEELING       CLOUDY    68  64  87 S10       29.94F
NORTHERLY ISL    N/A     70  58  65 S17         N/A
$$

LMZ740>746-221800-
SOUTHERN LAKE MICHIGAN

STATION/POSITION SKY/WX   TEMP    WIND        PRES    VSBY  WAVE
                          AIR SEA DIR/SP/G                  HT/PER
                          (F)     (DEG/KT/KT) (MB)    (MI)  (FT/S)
SOUTHERN BUOY              63 61  170/ 17/ 21 1014.5          4/ 5
WILMETTE HARBOR            64 58  180/ 12/ 16   N/A           3/ 4
HARRISON CRIB              68     180/ 23/ 24   N/A
BURNHAM HARBOR             70     200/ 15/ 16   N/A
CALUMET HARBOR             70     160/ 15/ 22 1013.8F
BURNS HARBOR               70     180/ 15/ 23 1015.6F
MICHIGAN CITY              69     170/ 17/ 21   N/A
MICHIGAN CITY 6N           66 58  190/ 16/ 19   N/A           2/ 3
ST. JOSEPH                 66 59  190/ 16/ 21 1015.9F         3/ 4
$$

ILZ025>027-034>036-040-047-049-050-058-095>099-221800-
WEST-CENTRAL ILLINOIS

CITY           SKY/WX    TMP DP  RH WIND       PRES   REMARKS
QUINCY         CLOUDY    54  49  83 N18G25    30.04R
MACOMB*        LGT RAIN  53  51  92 N16G23    30.03S
JACKSONVILLE*  RAIN      56  55  97 NW18G24   29.98R
$$

ILZ028>032-037-038-041>044-048-051>054-059>061-221800-
CENTRAL ILLINOIS

CITY           SKY/WX    TMP DP  RH WIND       PRES   REMARKS
BLOOMINGTON    CLOUDY    68  63  84 S16       29.94F
DECATUR        CLOUDY    69  62  78 S18G30    29.95F
PEORIA         LGT RAIN  57  57 100 N13G22    29.96S FOG
LACON*         DRIZZLE   57  57 100 NW13      29.95S
LINCOLN*       CLOUDY    71  65  81 S14       29.92S
SPRINGFIELD    LGT RAIN  61  60  97 NW13      29.95R
TAYLORVILLE    CLOUDY    69  63  80 S17G23    29.94S
$$

ILZ033-039-045-046-055>057-062-063-221800-
EAST-CENTRAL ILLINOIS

CITY           SKY/WX    TMP DP  RH WIND       PRES   REMARKS
CHAMPAIGN      CLOUDY    72  60  66 S28G37    29.97F
DANVILLE*      CLOUDY    67  61  79 S15G24    29.97F
MATTOON        CLOUDY    69  62  78 S20G32    29.98S
PARIS*         CLOUDY    67  63  86 S18G25    30.01F
$$

ILZ079-100>102-221800-
SOUTHWEST ILLINOIS

CITY           SKY/WX    TMP DP  RH WIND       PRES   REMARKS
ALTON          RAIN      61  61 100 W9        29.98R
BELLEVILLE     CLOUDY    66  63  88 W7        29.97S
CAHOKIA*       CLOUDY    66  60  81 W6        29.98R
SPARTA*        CLOUDY    71  63  74 S12G17    29.97S
$$

ILZ064>066-069>071-074>076-080>082-084>086-088>090-092>094-221800-
SOUTH-CENTRAL ILLINOIS

CITY           SKY/WX    TMP DP  RH WIND       PRES   REMARKS
CARBONDALE     CLOUDY    74  65  73 S18G29    29.97F
MARION         PTSUNNY   72  66  83 S14G24    29.99F
MT. VERNON     CLOUDY    73  64  73 S21G28    29.98F
CENTRALIA*     CLOUDY    71  65  80 S14G22    29.96F
SALEM*         CLOUDY    72  63  72 S16G23    29.97S
METROPOLIS*    CLOUDY    74  63  67 S6        30.02S
$$

ILZ067-068-072-073-078-083-087-091-221800-
SOUTHEAST ILLINOIS

CITY           SKY/WX    TMP DP  RH WIND       PRES   REMARKS
LAWRENCEVILLE  PTSUNNY   75  61  61 S18G31    30.03F
FLORA*         CLOUDY    72  64  73 S17G24    29.99F
FAIRFIELD*     CLOUDY    71  63  74 S12G20    30.00F
HARRISBURG*    CLOUDY    73  64  73 S17G23    30.02S
ROBINSON*      PTSUNNY   72  61  69 S18G24    30.03F
CARMI*         MOSUNNY   74  63  66 S21G32    30.02S
$$

ABBREVIATIONS USED IN REMARKS
   TC - TEMPERATURE IN CELSIUS
  WCI - WIND CHILL INDEX
   HX - HEAT INDEX
  VSB - VISIBILITY
$$





USA.gov is the U.S. government's official web portal to all federal, state and local government web resources and services.